Weather History for Drummond Island, MI

Change the Weather History Date:

Friday, July 19, 2013

  Actual Average (KCIU) Record (KCIU)
Temperature  
Mean Temperature 71 °F -  
Max Temperature 79 °F 78 °F 88 °F (1991)
Min Temperature 60 °F 51 °F 35 °F (2000)
Cooling Degree Days 6    
Growing Degree Days 21 (Base 50)    
Moisture  
Dew Point 66 °F    
Average Humidity 89    
Maximum Humidity 100    
Minimum Humidity 63    
Precipitation  
Precipitation 0.00 in - - ()
Sea Level Pressure  
Sea Level Pressure 29.68 in    
Wind  
Wind Speed 6 mph (WSW)    
Max Wind Speed 14 mph    
Max Gust Speed 23 mph    
Visibility 9 miles    
Events Rain    
Averages and records for this station are not official NWS values.
T = Trace of Precipitation, MM = Missing Value Source: NWS Daily Summary

Daily Weather History Graph

Daily Weather History Graph

Search for Another Location

Airport:

Trip Planner

Search our weather history database for the weather conditions in past years. The results will help you decide how hot, cold, wet, or windy it might be!

Date:

Astronomy

Jul. 19, 2013 Rise Set
Actual Time 6:03 AM EDT 9:18 PM EDT
Civil Twilight 5:26 AM EDT 9:55 PM EDT
Nautical Twilight 4:39 AM EDT 10:42 PM EDT
Astronomical Twilight 3:39 AM EDT 11:41 PM EDT
Moon 6:19 PM EDT (7/19) 2:44 AM EDT (7/19)
Length of Visible Light 16h 28m
Length of Day
15h 15m
Waxing Gibbous, 86% of the Moon is Illuminated
Jul 19
Waxing Gibbous
Jul 22
Full
Jul 29
Last Quarter
Aug 6
New
Aug 14
First Quarter

Hourly Weather History & Observations

Time (EDT) Temp. Dew Point Humidity Pressure Visibility Wind Dir Wind Speed Gust Speed Precip Events Conditions
12:16 AM 69.8 °F 69.8 °F 100% 29.75 in 7.0 mi Calm Calm - N/A Rain Light Rain
12:36 AM 69.3 °F 69.3 °F 100% 29.74 in 10.0 mi South 5.8 mph - N/A   Mostly Cloudy
12:56 AM 69.3 °F 69.3 °F 100% 29.73 in 10.0 mi South 8.1 mph - N/A   Scattered Clouds
1:16 AM 69.8 °F 68.9 °F 97% 29.73 in 10.0 mi South 10.4 mph - N/A   Mostly Cloudy
1:36 AM 69.8 °F 69.1 °F 98% 29.72 in 4.0 mi South 11.5 mph - N/A Rain Heavy Rain
1:56 AM 69.4 °F 68.5 °F 97% 29.72 in 10.0 mi South 11.5 mph - N/A Rain Light Rain
2:16 AM 70.3 °F 69.4 °F 97% 29.78 in 10.0 mi NNW 6.9 mph 23.0 mph N/A Rain Light Rain
2:35 AM 68.9 °F 68.4 °F 98% 29.77 in 4.0 mi North 4.6 mph - N/A Rain Light Rain
2:56 AM 68.4 °F 68.0 °F 99% 29.76 in 10.0 mi ENE 3.5 mph - N/A Rain Light Rain
3:16 AM 67.6 °F 67.5 °F 99% 29.75 in 10.0 mi Calm Calm - N/A Rain Light Rain
3:35 AM 67.3 °F 67.3 °F 100% 29.74 in 10.0 mi SW 4.6 mph - N/A   Overcast
3:56 AM 67.3 °F 67.3 °F 100% 29.73 in 10.0 mi Calm Calm - N/A   Overcast
4:16 AM 67.3 °F 67.3 °F 100% 29.72 in 10.0 mi SSE 3.5 mph - N/A   Overcast
4:35 AM 67.3 °F 67.3 °F 100% 29.70 in 10.0 mi Calm Calm - N/A   Overcast
4:56 AM 67.3 °F 67.3 °F 100% 29.69 in 10.0 mi South 4.6 mph - N/A   Overcast
5:16 AM 67.3 °F 67.3 °F 100% 29.69 in 10.0 mi SSE 4.6 mph - N/A   Overcast
5:36 AM 67.3 °F 67.1 °F 99% 29.68 in 10.0 mi SSE 6.9 mph - N/A   Overcast
5:56 AM 67.1 °F 66.7 °F 99% 29.66 in 10.0 mi SSE 8.1 mph - N/A   Mostly Cloudy
6:16 AM 66.7 °F 66.2 °F 98% 29.66 in 10.0 mi South 6.9 mph - N/A   Scattered Clouds
6:36 AM 66.7 °F 65.7 °F 96% 29.65 in 10.0 mi South 6.9 mph - N/A   Scattered Clouds
6:56 AM 67.1 °F 65.3 °F 94% 29.65 in 10.0 mi South 8.1 mph - N/A   Mostly Cloudy
7:16 AM 67.5 °F 66.2 °F 96% 29.64 in 10.0 mi South 9.2 mph 17.3 mph N/A   Scattered Clouds
7:36 AM 68.4 °F 67.3 °F 96% 29.67 in 10.0 mi NW 9.2 mph - N/A   Mostly Cloudy
7:56 AM 68.2 °F 67.5 °F 98% 29.67 in 7.0 mi NW 4.6 mph - N/A Rain Rain
8:15 AM 67.5 °F 67.3 °F 99% 29.71 in 1.2 mi North 9.2 mph 20.7 mph N/A Rain Heavy Rain
8:36 AM 67.1 °F 67.1 °F 100% 29.66 in 10.0 mi East 3.5 mph - N/A   Overcast
8:55 AM 67.5 °F 67.5 °F 100% 29.67 in 10.0 mi Calm Calm - N/A   Overcast
9:16 AM 68.0 °F 68.0 °F 100% 29.65 in 10.0 mi ESE 3.5 mph - N/A   Mostly Cloudy
9:36 AM 68.0 °F 67.5 °F 98% 29.65 in 10.0 mi SSE 5.8 mph - N/A   Mostly Cloudy
9:55 AM 68.0 °F 68.0 °F 100% 29.67 in 10.0 mi South 8.1 mph - N/A Rain Rain
10:16 AM 67.3 °F 67.1 °F 99% 29.65 in 10.0 mi South 8.1 mph - N/A Rain Light Rain
10:36 AM 66.7 °F 66.2 °F 98% 29.62 in 10.0 mi South 8.1 mph - N/A Rain Light Rain
10:56 AM 66.9 °F 66.2 °F 98% 29.62 in 10.0 mi South 8.1 mph - N/A   Scattered Clouds
11:16 AM 68.9 °F 67.6 °F 96% 29.62 in 10.0 mi South 9.2 mph - N/A   Scattered Clouds
11:36 AM 72.5 °F 69.4 °F 90% 29.61 in 10.0 mi SSW 10.4 mph - N/A   Scattered Clouds
11:56 AM 70.2 °F 68.0 °F 93% 29.61 in 10.0 mi SSW 9.2 mph - N/A   Overcast
12:16 PM 70.3 °F 68.4 °F 93% 29.61 in 10.0 mi SSW 12.7 mph 18.4 mph N/A   Overcast
12:35 PM 73.9 °F 70.3 °F 88% 29.61 in 10.0 mi SSW 12.7 mph 18.4 mph N/A   Overcast
12:56 PM 74.7 °F 70.7 °F 87% 29.61 in 10.0 mi SSW 11.5 mph 20.7 mph N/A   Mostly Cloudy
1:16 PM 75.2 °F 70.7 °F 86% 29.61 in 10.0 mi SW 8.1 mph - N/A   Overcast
1:35 PM 77.4 °F 71.6 °F 82% 29.62 in 10.0 mi SW 10.4 mph - N/A   Scattered Clouds
1:56 PM 79.3 °F 71.6 °F 77% 29.61 in 10.0 mi WSW 12.7 mph 20.7 mph N/A   Clear
2:16 PM 79.3 °F 71.4 °F 77% 29.62 in 10.0 mi SW 11.5 mph 18.4 mph N/A   Clear
2:36 PM 78.6 °F 70.9 °F 77% 29.61 in 10.0 mi WSW 12.7 mph 20.7 mph N/A   Clear
2:56 PM 79.9 °F 71.1 °F 74% 29.60 in 10.0 mi WSW 12.7 mph 21.9 mph N/A   Clear
3:16 PM 77.7 °F 70.2 °F 77% 29.64 in 10.0 mi West 13.8 mph 20.7 mph N/A   Mostly Cloudy
3:36 PM 67.3 °F 66.2 °F 96% 29.66 in 1.0 mi West 5.8 mph 16.1 mph N/A Rain Heavy Rain
3:55 PM 68.2 °F 68.0 °F 99% 29.64 in 7.0 mi Calm Calm - N/A Rain Light Rain
4:16 PM 70.0 °F 69.6 °F 99% 29.65 in 7.0 mi West 4.6 mph - N/A Rain Rain
4:36 PM 70.7 °F 68.9 °F 94% 29.66 in 10.0 mi West 3.5 mph - N/A   Overcast
4:56 PM 72.7 °F 69.3 °F 89% 29.65 in 10.0 mi West 3.5 mph - N/A   Mostly Cloudy
5:16 PM 73.8 °F 67.3 °F 80% 29.65 in 10.0 mi WNW 4.6 mph - N/A   Scattered Clouds
5:36 PM 74.8 °F 67.3 °F 77% 29.66 in 10.0 mi WNW 4.6 mph - N/A   Scattered Clouds
5:56 PM 74.3 °F 63.0 °F 68% 29.67 in 10.0 mi WNW 5.8 mph 16.1 mph N/A   Scattered Clouds
6:16 PM 74.3 °F 61.9 °F 65% 29.67 in 10.0 mi NW 8.1 mph - N/A   Scattered Clouds
6:35 PM 74.3 °F 62.1 °F 65% 29.67 in 10.0 mi NW 6.9 mph - N/A   Scattered Clouds
6:56 PM 73.2 °F 60.8 °F 65% 29.67 in 10.0 mi NNW 8.1 mph - N/A   Clear
7:16 PM 71.8 °F 59.5 °F 65% 29.68 in 10.0 mi NNW 9.2 mph 17.3 mph N/A   Clear
7:35 PM 71.4 °F 58.3 °F 63% 29.69 in 10.0 mi NW 6.9 mph 18.4 mph N/A   Clear
7:56 PM 70.3 °F 58.3 °F 66% 29.70 in 10.0 mi NW 9.2 mph - N/A   Clear
8:15 PM 69.3 °F 58.6 °F 69% 29.70 in 10.0 mi NW 9.2 mph - N/A   Clear
8:36 PM 68.2 °F 58.8 °F 72% 29.70 in 10.0 mi NNW 8.1 mph - N/A   Clear
8:56 PM 67.3 °F 59.2 °F 75% 29.71 in 10.0 mi NW 5.8 mph - N/A   Clear
9:16 PM 66.4 °F 59.2 °F 78% 29.71 in 10.0 mi NW 8.1 mph - N/A   Clear
9:36 PM 66.0 °F 59.4 °F 79% 29.72 in 10.0 mi NW 3.5 mph - N/A   Clear
9:56 PM 65.5 °F 59.7 °F 82% 29.72 in 10.0 mi NW 3.5 mph - N/A   Clear
10:16 PM 65.5 °F 59.9 °F 82% 29.73 in 10.0 mi Calm Calm - N/A   Clear
10:36 PM 64.8 °F 59.9 °F 84% 29.73 in 10.0 mi Calm Calm - N/A   Clear
10:55 PM 64.0 °F 60.3 °F 87% 29.72 in 10.0 mi Calm Calm - N/A   Clear
11:16 PM 63.3 °F 60.3 °F 90% 29.72 in 10.0 mi Calm Calm - N/A   Clear
11:36 PM 63.9 °F 61.0 °F 90% 29.72 in 10.0 mi Calm Calm - N/A   Clear
11:56 PM 60.6 °F 59.9 °F 97% 29.72 in 10.0 mi Calm Calm - N/A   Clear